QPF
0.01 0.02 0.03 0.03 0.03 0.03 0.03 0.02 0.01 0.01 0.01 0.01 0.01 0.01 0.02 0.01 0.00 0.00 0.00 0.00 0.00 0.01 0.01 0.02 0.01 0.01 0.01 0.02 0.03 0.03 0.04 0.05 0.03 0.03 0.03 0.04 0.04 0.04 0.03 0.02 0.02 0.02 0.02
0.00 0.01 0.02 0.02 0.02 0.02 0.03 0.02 0.01 0.01 0.01 0.00 0.00 0.01 0.01 0.00 0.00 0.01 0.00 0.00 0.00 0.01 0.01 0.01 0.01 0.01 0.02 0.02 0.02 0.03 0.03 0.03 0.03 0.03 0.04 0.04 0.04 0.04 0.03 0.02 0.02 0.02 0.02
0.00 0.01 0.02 0.01 0.02 0.02 0.02 0.02 0.01 0.01 0.01 0.00 0.00 0.01 0.01 0.00 0.00 0.00 0.00 0.00 0.00 0.01 0.01 0.02 0.01 0.01 0.01 0.01 0.01 0.02 0.02 0.02 0.02 0.02 0.02 0.03 0.03 0.03 0.03 0.03 0.02 0.02 0.01
0.00 0.00 0.01 0.01 0.02 0.02 0.02 0.02 0.02 0.01 0.01 0.00 0.00 0.00 0.01 0.01 0.00 0.00 0.00 0.01 0.01 0.01 0.01 0.01 0.01 0.01 0.01 0.01 0.01 0.02 0.02 0.01 0.01 0.01 0.01 0.02 0.03 0.03 0.02 0.02 0.02 0.01 0.01
0.01 0.00 0.00 0.01 0.02 0.02 0.01 0.02 0.02 0.01 0.01 0.01 0.01 0.00 0.01 0.02 0.01 0.00 0.01 0.01 0.01 0.00 0.00 0.00 0.00 0.00 0.00 0.00 0.00 0.01 0.02 0.02 0.01 0.01 0.01 0.01 0.01 0.01 0.01 0.01 0.01 0.01 0.00
0.01 0.01 0.01 0.01 0.02 0.02 0.01 0.01 0.01 0.01 0.01 0.01 0.01 0.00 0.00 0.01 0.02 0.01 0.01 0.01 0.01 0.00 0.00 0.00 0.00 0.00 0.00 0.00 0.00 0.01 0.01 0.01 0.01 0.00 0.00 0.00 0.00 0.00 0.01 0.00 0.01 0.01 0.01
0.01 0.01 0.01 0.01 0.01 0.01 0.01 0.02 0.02 0.01 0.01 0.01 0.01 0.01 0.01 0.01 0.01 0.01 0.01 0.00 0.01 0.01 0.00 0.00 0.00 0.00 0.00 0.00 0.01 0.01 0.01 0.01 0.01 0.00 0.00 0.00 0.00 0.00 0.00 0.00 0.01 0.00 0.00
0.01 0.00 0.01 0.01 0.01 0.01 0.01 0.02 0.03 0.03 0.02 0.01 0.02 0.02 0.02 0.01 0.01 0.00 0.00 0.00 0.01 0.01 0.00 0.00 0.00 0.01 0.01 0.01 0.02 0.01 0.01 0.01 0.01 0.00 0.00 0.00 0.01 0.01 0.01 0.00 0.00 0.00 0.00
0.01 0.01 0.01 0.01 0.01 0.01 0.01 0.01 0.04 0.02 0.02 0.02 0.02 0.02 0.03 0.03 0.02 0.01 0.01 0.00 0.01 0.01 0.00 0.01 0.01 0.01 0.01 0.01 0.01 0.01 0.01 0.01 0.01 0.01 0.01 0.01 0.01 0.02 0.02 0.01 0.01 0.00 0.01
0.02 0.02 0.02 0.02 0.02 0.02 0.02 0.02 0.03 0.02 0.02 0.02 0.03 0.02 0.03 0.03 0.03 0.02 0.01 0.00 0.01 0.01 0.01 0.01 0.01 0.02 0.02 0.01 0.01 0.01 0.01 0.01 0.01 0.01 0.01 0.01 0.01 0.01 0.02 0.02 0.02 0.02 0.01
0.01 0.02 0.02 0.03 0.02 0.02 0.02 0.02 0.02 0.03 0.02 0.01 0.02 0.01 0.02 0.02 0.03 0.03 0.02 0.01 0.01 0.01 0.01 0.01 0.02 0.02 0.01 0.01 0.01 0.01 0.01 0.01 0.01 0.01 0.01 0.01 0.01 0.01 0.01 0.01 0.01 0.02 0.03
0.01 0.01 0.02 0.03 0.03 0.02 0.02 0.02 0.01 0.02 0.02 0.01 0.02 0.02 0.02 0.04 0.04 0.03 0.02 0.01 0.01 0.01 0.01 0.01 0.02 0.02 0.02 0.01 0.01 0.01 0.01 0.01 0.01 0.01 0.01 0.01 0.01 0.01 0.01 0.01 0.01 0.01 0.02
0.01 0.02 0.02 0.02 0.02 0.02 0.02 0.02 0.01 0.01 0.01 0.01 0.01 0.02 0.03 0.04 0.04 0.04 0.03 0.02 0.01 0.01 0.01 0.01 0.01 0.01 0.01 0.01 0.02 0.02 0.01 0.01 0.01 0.01 0.01 0.01 0.01 0.01 0.00 0.00 0.00 0.01 0.01
0.01 0.01 0.01 0.01 0.01 0.01 0.01 0.01 0.01 0.01 0.01 0.01 0.02 0.02 0.02 0.02 0.02 0.03 0.03 0.03 0.03 0.02 0.01 0.01 0.01 0.01 0.01 0.01 0.01 0.01 0.01 0.01 0.02 0.01 0.01 0.01 0.00 0.00 0.00 0.00 0.01 0.01 0.01
0.00 0.00 0.01 0.01 0.00 0.00 0.00 0.01 0.01 0.01 0.01 0.01 0.02 0.02 0.02 0.02 0.03 0.03 0.03 0.03 0.04 0.04 0.02 0.01 0.01 0.01 0.00 0.00 0.01 0.01 0.01 0.02 0.02 0.01 0.01 0.01 0.01 0.01 0.01 0.01 0.01 0.01 0.01
0.00 0.00 0.00 0.00 0.00 0.00 0.00 0.00 0.01 0.01 0.01 0.01 0.01 0.01 0.02 0.02 0.02 0.02 0.02 0.03 0.04 0.05 0.05 0.03 0.02 0.01 0.01 0.01 0.01 0.01 0.02 0.02 0.02 0.02 0.01 0.01 0.01 0.01 0.01 0.01 0.01 0.01 0.01
0.00 0.00 0.00 0.00 0.00 0.00 0.00 0.00 0.00 0.00 0.00 0.00 0.00 0.01 0.02 0.01 0.02 0.02 0.02 0.02 0.03 0.03 0.03 0.03 0.03 0.03 0.03 0.02 0.01 0.01 0.02 0.02 0.02 0.02 0.02 0.02 0.02 0.02 0.01 0.01 0.01 0.01 0.01
0.01 0.01 0.01 0.01 0.00 0.00 0.00 0.00 0.00 0.00 0.00 0.01 0.01 0.01 0.03 0.03 0.02 0.03 0.03 0.02 0.02 0.01 0.01 0.02 0.02 0.02 0.02 0.02 0.02 0.02 0.02 0.02 0.02 0.02 0.03 0.04 0.04 0.04 0.03 0.02 0.02 0.02 0.01
0.02 0.02 0.01 0.01 0.01 0.01 0.01 0.01 0.01 0.01 0.01 0.01 0.01 0.01 0.02 0.03 0.04 0.04 0.04 0.02 0.01 0.01 0.01 0.01 0.01 0.01 0.01 0.02 0.02 0.02 0.03 0.03 0.02 0.02 0.02 0.03 0.04 0.04 0.05 0.04 0.04 0.03 0.03
0.02 0.02 0.01 0.01 0.01 0.01 0.01 0.01 0.01 0.01 0.01 0.01 0.01 0.01 0.01 0.02 0.02 0.04 0.05 0.04 0.02 0.01 0.01 0.01 0.01 0.01 0.01 0.02 0.02 0.02 0.03 0.03 0.03 0.02 0.02 0.02 0.02 0.02 0.03 0.03 0.04 0.04 0.03
0.01 0.01 0.01 0.01 0.01 0.01 0.01 0.01 0.01 0.01 0.01 0.01 0.02 0.01 0.01 0.01 0.02 0.02 0.03 0.05 0.04 0.02 0.01 0.01 0.01 0.01 0.01 0.02 0.02 0.03 0.03 0.02 0.02 0.02 0.02 0.02 0.02 0.02 0.02 0.02 0.02 0.02 0.03
0.01 0.01 0.00 0.01 0.01 0.01 0.01 0.01 0.01 0.01 0.01 0.01 0.02 0.02 0.02 0.01 0.01 0.02 0.03 0.04 0.04 0.03 0.02 0.02 0.02 0.02 0.03 0.03 0.03 0.03 0.03 0.03 0.02 0.02 0.02 0.02 0.02 0.02 0.02 0.02 0.02 0.02 0.02
0.01 0.01 0.00 0.00 0.01 0.01 0.01 0.01 0.01 0.01 0.01 0.01 0.01 0.02 0.03 0.02 0.02 0.02 0.02 0.03 0.03 0.03 0.02 0.02 0.02 0.03 0.03 0.03 0.03 0.03 0.03 0.02 0.02 0.02 0.02 0.01 0.01 0.01 0.01 0.01 0.02 0.02 0.02
0.01 0.01 0.00 0.00 0.00 0.01 0.01 0.01 0.01 0.01 0.01 0.01 0.01 0.01 0.03 0.03 0.02 0.02 0.02 0.03 0.03 0.03 0.02 0.02 0.03 0.04 0.03 0.03 0.03 0.02 0.02 0.02 0.01 0.01 0.01 0.01 0.01 0.01 0.01 0.01 0.02 0.02 0.02
0.00 0.01 0.01 0.00 0.00 0.01 0.01 0.00 0.00 0.01 0.01 0.01 0.01 0.01 0.02 0.02 0.03 0.02 0.03 0.04 0.04 0.03 0.03 0.03 0.03 0.03 0.03 0.03 0.02 0.02 0.02 0.02 0.02 0.01 0.01 0.01 0.01 0.01 0.01 0.01 0.02 0.02 0.02
0.00 0.00 0.00 0.00 0.00 0.00 0.00 0.00 0.01 0.01 0.01 0.01 0.01 0.02 0.02 0.03 0.03 0.03 0.04 0.05 0.05 0.04 0.03 0.03 0.03 0.03 0.03 0.03 0.02 0.02 0.02 0.02 0.02 0.01 0.01 0.01 0.01 0.01 0.01 0.01 0.01 0.02 0.02
MSLP
1020.92 1021.31 1021.68 1022.01 1022.28 1022.48 1022.64 1022.76 1022.89 1023.05 1023.24 1023.46 1023.70 1023.94 1024.14 1024.30 1024.39 1024.42 1024.43 1024.42 1024.44 1024.50 1024.60 1024.74 1024.90 1025.05 1025.15 1025.19 1025.16 1025.06 1024.91 1024.75 1024.60 1024.51 1024.48 1024.54 1024.66 1024.83 1025.02 1025.21 1025.37 1025.49 1025.57
1020.76 1021.15 1021.52 1021.85 1022.12 1022.34 1022.52 1022.68 1022.85 1023.05 1023.28 1023.54 1023.80 1024.05 1024.27 1024.42 1024.50 1024.54 1024.53 1024.51 1024.51 1024.54 1024.63 1024.75 1024.90 1025.04 1025.15 1025.19 1025.18 1025.09 1024.96 1024.82 1024.68 1024.58 1024.54 1024.56 1024.65 1024.77 1024.91 1025.05 1025.17 1025.24 1025.29
1020.55 1020.97 1021.36 1021.71 1022.01 1022.26 1022.47 1022.68 1022.90 1023.13 1023.40 1023.68 1023.97 1024.23 1024.44 1024.58 1024.66 1024.67 1024.64 1024.60 1024.58 1024.59 1024.66 1024.76 1024.89 1025.01 1025.12 1025.17 1025.17 1025.10 1024.99 1024.86 1024.74 1024.65 1024.60 1024.60 1024.65 1024.73 1024.82 1024.91 1024.98 1025.01 1025.02
1020.31 1020.78 1021.22 1021.61 1021.94 1022.24 1022.51 1022.76 1023.03 1023.31 1023.60 1023.91 1024.20 1024.46 1024.66 1024.78 1024.84 1024.83 1024.79 1024.73 1024.68 1024.67 1024.71 1024.78 1024.89 1025.00 1025.09 1025.14 1025.14 1025.09 1024.99 1024.87 1024.76 1024.66 1024.60 1024.59 1024.61 1024.65 1024.70 1024.74 1024.76 1024.76 1024.73
1020.07 1020.60 1021.09 1021.54 1021.94 1022.29 1022.62 1022.93 1023.24 1023.55 1023.87 1024.19 1024.48 1024.73 1024.91 1025.02 1025.06 1025.03 1024.97 1024.89 1024.83 1024.80 1024.81 1024.86 1024.94 1025.02 1025.09 1025.12 1025.10 1025.04 1024.94 1024.82 1024.70 1024.59 1024.51 1024.47 1024.46 1024.47 1024.48 1024.49 1024.47 1024.44 1024.39
1019.82 1020.43 1021.00 1021.51 1021.98 1022.39 1022.77 1023.14 1023.49 1023.84 1024.18 1024.50 1024.79 1025.02 1025.18 1025.28 1025.30 1025.26 1025.19 1025.11 1025.04 1024.99 1024.98 1025.01 1025.06 1025.10 1025.13 1025.12 1025.07 1024.97 1024.84 1024.69 1024.53 1024.40 1024.29 1024.21 1024.17 1024.14 1024.13 1024.11 1024.08 1024.04 1023.99
1019.60 1020.29 1020.93 1021.51 1022.03 1022.51 1022.95 1023.36 1023.76 1024.14 1024.49 1024.82 1025.09 1025.31 1025.46 1025.54 1025.56 1025.52 1025.45 1025.37 1025.30 1025.26 1025.23 1025.23 1025.24 1025.24 1025.22 1025.15 1025.04 1024.88 1024.69 1024.48 1024.27 1024.08 1023.92 1023.81 1023.72 1023.67 1023.63 1023.61 1023.58 1023.55 1023.51
1019.38 1020.14 1020.85 1021.50 1022.08 1022.62 1023.11 1023.57 1024.00 1024.40 1024.77 1025.10 1025.38 1025.59 1025.74 1025.81 1025.83 1025.81 1025.75 1025.69 1025.63 1025.58 1025.55 1025.53 1025.50 1025.44 1025.36 1025.22 1025.03 1024.79 1024.52 1024.23 1023.94 1023.68 1023.46 1023.28 1023.16 1023.07 1023.02 1023.00 1022.98 1022.98 1022.98
1019.16 1019.99 1020.75 1021.45 1022.09 1022.68 1023.22 1023.72 1024.19 1024.62 1025.01 1025.34 1025.63 1025.84 1026.00 1026.08 1026.12 1026.11 1026.08 1026.03 1025.99 1025.94 1025.90 1025.86 1025.79 1025.68 1025.53 1025.31 1025.03 1024.70 1024.33 1023.95 1023.58 1023.23 1022.94 1022.70 1022.53 1022.42 1022.36 1022.34 1022.36 1022.39 1022.44
1018.92 1019.80 1020.61 1021.35 1022.04 1022.67 1023.25 1023.80 1024.30 1024.77 1025.18 1025.54 1025.84 1026.07 1026.24 1026.35 1026.40 1026.42 1026.41 1026.38 1026.35 1026.31 1026.26 1026.19 1026.08 1025.92 1025.69 1025.40 1025.03 1024.61 1024.15 1023.68 1023.22 1022.80 1022.43 1022.14 1021.93 1021.79 1021.72 1021.71 1021.75 1021.83 1021.93
1018.63 1019.54 1020.39 1021.17 1021.89 1022.57 1023.20 1023.79 1024.34 1024.84 1025.29 1025.68 1026.01 1026.27 1026.46 1026.59 1026.67 1026.71 1026.72 1026.71 1026.68 1026.64 1026.57 1026.47 1026.32 1026.11 1025.82 1025.46 1025.02 1024.53 1023.99 1023.44 1022.91 1022.42 1021.99 1021.64 1021.39 1021.23 1021.15 1021.15 1021.22 1021.33 1021.48
1018.26 1019.21 1020.08 1020.90 1021.66 1022.38 1023.05 1023.69 1024.29 1024.83 1025.33 1025.76 1026.13 1026.42 1026.64 1026.80 1026.90 1026.96 1026.98 1026.97 1026.93 1026.88 1026.79 1026.66 1026.47 1026.21 1025.88 1025.46 1024.98 1024.43 1023.84 1023.24 1022.65 1022.10 1021.63 1021.24 1020.95 1020.77 1020.69 1020.70 1020.78 1020.93 1021.11
1017.82 1018.79 1019.69 1020.54 1021.33 1022.09 1022.81 1023.50 1024.14 1024.74 1025.29 1025.77 1026.18 1026.51 1026.76 1026.94 1027.06 1027.12 1027.13 1027.11 1027.06 1026.98 1026.86 1026.70 1026.47 1026.19 1025.82 1025.38 1024.87 1024.29 1023.68 1023.05 1022.43 1021.86 1021.35 1020.93 1020.62 1020.42 1020.33 1020.34 1020.43 1020.59 1020.80
1017.31 1018.29 1019.22 1020.09 1020.92 1021.72 1022.48 1023.21 1023.91 1024.56 1025.16 1025.69 1026.14 1026.50 1026.78 1026.98 1027.11 1027.16 1027.17 1027.12 1027.04 1026.93 1026.77 1026.58 1026.33 1026.02 1025.64 1025.20 1024.68 1024.11 1023.50 1022.87 1022.25 1021.66 1021.14 1020.70 1020.37 1020.15 1020.04 1020.04 1020.14 1020.31 1020.53
1016.74 1017.74 1018.69 1019.59 1020.45 1021.27 1022.08 1022.85 1023.59 1024.29 1024.93 1025.50 1025.99 1026.39 1026.69 1026.90 1027.02 1027.07 1027.05 1026.98 1026.86 1026.71 1026.53 1026.30 1026.04 1025.72 1025.35 1024.92 1024.42 1023.87 1023.29 1022.68 1022.07 1021.49 1020.96 1020.51 1020.16 1019.92 1019.80 1019.78 1019.86 1020.03 1020.26
1016.14 1017.16 1018.13 1019.05 1019.93 1020.78 1021.61 1022.42 1023.19 1023.92 1024.60 1025.21 1025.73 1026.15 1026.46 1026.68 1026.80 1026.83 1026.79 1026.69 1026.54 1026.36 1026.14 1025.90 1025.63 1025.32 1024.97 1024.56 1024.11 1023.60 1023.05 1022.48 1021.89 1021.33 1020.80 1020.34 1019.98 1019.71 1019.56 1019.52 1019.58 1019.73 1019.94
1015.54 1016.58 1017.56 1018.49 1019.39 1020.26 1021.10 1021.93 1022.72 1023.48 1024.18 1024.81 1025.35 1025.78 1026.11 1026.33 1026.44 1026.46 1026.40 1026.28 1026.11 1025.90 1025.68 1025.43 1025.16 1024.87 1024.55 1024.18 1023.77 1023.31 1022.81 1022.27 1021.72 1021.17 1020.64 1020.18 1019.78 1019.49 1019.31 1019.23 1019.26 1019.39 1019.59
1014.96 1016.01 1017.00 1017.95 1018.85 1019.73 1020.58 1021.41 1022.21 1022.98 1023.69 1024.32 1024.87 1025.31 1025.65 1025.87 1025.98 1025.99 1025.92 1025.79 1025.61 1025.40 1025.17 1024.93 1024.68 1024.41 1024.12 1023.80 1023.44 1023.03 1022.57 1022.07 1021.54 1021.00 1020.48 1020.00 1019.58 1019.26 1019.04 1018.93 1018.93 1019.02 1019.20
1014.42 1015.48 1016.48 1017.43 1018.34 1019.21 1020.06 1020.89 1021.68 1022.44 1023.14 1023.78 1024.32 1024.77 1025.10 1025.32 1025.43 1025.45 1025.38 1025.24 1025.07 1024.86 1024.65 1024.42 1024.20 1023.97 1023.72 1023.44 1023.12 1022.75 1022.33 1021.86 1021.35 1020.82 1020.30 1019.81 1019.37 1019.02 1018.76 1018.62 1018.58 1018.64 1018.79
1013.92 1014.99 1015.99 1016.95 1017.85 1018.72 1019.56 1020.37 1021.15 1021.89 1022.58 1023.19 1023.73 1024.16 1024.49 1024.71 1024.82 1024.84 1024.78 1024.66 1024.50 1024.31 1024.12 1023.92 1023.73 1023.53 1023.31 1023.07 1022.79 1022.45 1022.06 1021.62 1021.13 1020.61 1020.09 1019.59 1019.14 1018.76 1018.48 1018.31 1018.24 1018.27 1018.39
1013.46 1014.53 1015.54 1016.50 1017.40 1018.27 1019.09 1019.88 1020.63 1021.34 1022.00 1022.59 1023.10 1023.52 1023.83 1024.05 1024.17 1024.20 1024.15 1024.05 1023.91 1023.75 1023.58 1023.41 1023.25 1023.07 1022.89 1022.68 1022.42 1022.11 1021.74 1021.31 1020.84 1020.33 1019.82 1019.32 1018.87 1018.49 1018.19 1018.00 1017.91 1017.92 1018.02
1013.02 1014.11 1015.13 1016.09 1016.99 1017.84 1018.65 1019.41 1020.13 1020.81 1021.42 1021.98 1022.46 1022.85 1023.15 1023.35 1023.47 1023.50 1023.47 1023.39 1023.27 1023.14 1023.00 1022.86 1022.72 1022.57 1022.40 1022.20 1021.96 1021.67 1021.31 1020.90 1020.44 1019.95 1019.45 1018.97 1018.54 1018.17 1017.88 1017.70 1017.60 1017.60 1017.68
1012.62 1013.71 1014.74 1015.70 1016.60 1017.43 1018.22 1018.95 1019.64 1020.27 1020.85 1021.36 1021.80 1022.15 1022.43 1022.62 1022.73 1022.77 1022.75 1022.69 1022.59 1022.48 1022.36 1022.24 1022.11 1021.98 1021.82 1021.63 1021.39 1021.10 1020.76 1020.36 1019.91 1019.45 1018.98 1018.52 1018.12 1017.78 1017.53 1017.36 1017.29 1017.29 1017.37
1012.24 1013.33 1014.36 1015.33 1016.22 1017.04 1017.80 1018.51 1019.15 1019.74 1020.27 1020.74 1021.13 1021.45 1021.70 1021.87 1021.97 1022.01 1022.00 1021.95 1021.87 1021.78 1021.67 1021.56 1021.44 1021.31 1021.15 1020.95 1020.71 1020.42 1020.07 1019.69 1019.26 1018.82 1018.38 1017.97 1017.61 1017.32 1017.11 1016.98 1016.94 1016.97 1017.06
1011.89 1012.98 1014.01 1014.96 1015.84 1016.65 1017.39 1018.06 1018.67 1019.22 1019.70 1020.12 1020.47 1020.76 1020.98 1021.13 1021.22 1021.26 1021.26 1021.21 1021.14 1021.06 1020.96 1020.86 1020.73 1020.59 1020.42 1020.21 1019.96 1019.66 1019.31 1018.93 1018.52 1018.10 1017.70 1017.33 1017.02 1016.78 1016.63 1016.55 1016.56 1016.63 1016.75
1011.58 1012.66 1013.67 1014.62 1015.48 1016.27 1016.98 1017.62 1018.19 1018.70 1019.14 1019.52 1019.84 1020.10 1020.29 1020.43 1020.51 1020.55 1020.55 1020.51 1020.45 1020.37 1020.28 1020.17 1020.04 1019.88 1019.70 1019.47 1019.20 1018.89 1018.54 1018.15 1017.75 1017.36 1016.98 1016.66 1016.40 1016.21 1016.10 1016.08 1016.14 1016.25 1016.41
Thickness
5694 5692 5689 5688 5686 5685 5683 5682 5681 5680 5679 5678 5676 5675 5674 5672 5671 5668 5667 5666 5666 5666 5666 5665 5663 5662 5661 5660 5659 5658 5656 5655 5651 5649 5647 5645 5643 5641 5638 5636 5635 5633 5631
5691 5689 5687 5685 5683 5682 5681 5680 5679 5678 5677 5676 5675 5673 5672 5670 5669 5668 5665 5664 5664 5663 5664 5663 5662 5660 5658 5658 5656 5655 5654 5653 5650 5645 5643 5641 5639 5637 5634 5632 5631 5630 5628
5687 5685 5683 5682 5681 5679 5679 5677 5677 5676 5674 5674 5673 5671 5669 5668 5667 5665 5664 5664 5663 5662 5661 5661 5660 5659 5657 5655 5653 5653 5651 5649 5647 5644 5640 5637 5635 5632 5629 5627 5626 5625 5624
5682 5680 5679 5678 5677 5676 5675 5674 5673 5672 5672 5671 5670 5668 5667 5666 5664 5663 5662 5661 5660 5660 5659 5658 5658 5656 5655 5653 5651 5650 5648 5645 5643 5641 5638 5635 5632 5629 5626 5624 5623 5622 5621
5678 5676 5675 5674 5673 5672 5671 5669 5669 5668 5667 5667 5666 5665 5664 5662 5661 5659 5659 5657 5657 5657 5656 5655 5654 5652 5650 5649 5648 5647 5644 5642 5640 5637 5635 5632 5629 5625 5623 5622 5620 5619 5617
5675 5672 5670 5669 5667 5666 5666 5665 5664 5663 5663 5662 5661 5661 5659 5658 5654 5652 5653 5654 5653 5653 5652 5651 5650 5647 5644 5642 5641 5639 5638 5638 5637 5634 5632 5629 5627 5624 5621 5619 5618 5616 5614
5670 5668 5665 5664 5662 5661 5660 5659 5658 5658 5658 5657 5656 5656 5656 5653 5650 5648 5647 5649 5649 5650 5649 5647 5646 5644 5641 5641 5637 5634 5632 5630 5630 5631 5629 5627 5625 5622 5619 5617 5615 5613 5610
5665 5662 5660 5659 5657 5656 5655 5654 5653 5654 5653 5652 5653 5652 5650 5648 5645 5644 5643 5645 5645 5645 5644 5644 5642 5640 5637 5636 5635 5633 5631 5628 5625 5624 5624 5623 5620 5618 5615 5613 5610 5607 5605
5658 5657 5656 5655 5653 5651 5650 5649 5648 5648 5648 5648 5648 5647 5646 5645 5641 5639 5638 5640 5641 5640 5640 5639 5637 5636 5631 5629 5630 5629 5627 5624 5620 5617 5615 5614 5611 5609 5607 5605 5603 5602 5600
5652 5652 5651 5650 5648 5646 5645 5644 5643 5642 5642 5642 5642 5643 5642 5641 5637 5634 5632 5636 5636 5636 5634 5633 5630 5629 5626 5623 5625 5624 5622 5620 5617 5614 5611 5608 5606 5603 5600 5599 5598 5597 5596
5647 5646 5645 5644 5642 5641 5640 5639 5638 5637 5636 5637 5637 5637 5636 5635 5632 5629 5628 5630 5630 5631 5630 5629 5627 5622 5619 5617 5617 5618 5616 5614 5612 5610 5608 5605 5603 5600 5597 5594 5592 5590 5589
5640 5639 5638 5637 5636 5636 5634 5632 5632 5630 5630 5630 5630 5631 5630 5629 5627 5625 5623 5623 5623 5624 5624 5623 5621 5615 5612 5610 5609 5609 5607 5605 5605 5604 5602 5600 5597 5595 5592 5588 5585 5582 5580
5633 5632 5631 5630 5628 5628 5627 5626 5625 5624 5624 5624 5624 5625 5624 5624 5621 5618 5616 5616 5615 5615 5617 5614 5611 5607 5605 5604 5602 5600 5598 5599 5599 5597 5595 5593 5590 5587 5584 5580 5577 5574 5571
5627 5626 5624 5623 5622 5622 5621 5621 5619 5619 5618 5618 5618 5618 5619 5617 5616 5613 5612 5610 5608 5608 5608 5606 5602 5600 5598 5597 5595 5593 5593 5592 5591 5589 5588 5585 5582 5578 5575 5572 5569 5565 5563
5621 5620 5618 5617 5616 5615 5614 5614 5614 5614 5613 5612 5613 5613 5612 5611 5610 5607 5606 5606 5604 5603 5600 5599 5598 5595 5594 5592 5591 5589 5587 5585 5583 5581 5579 5576 5573 5570 5567 5564 5560 5557 5555
5615 5614 5612 5610 5609 5608 5607 5606 5604 5604 5603 5603 5603 5603 5605 5603 5601 5599 5598 5596 5595 5593 5592 5593 5592 5591 5589 5588 5586 5583 5581 5579 5576 5573 5570 5567 5564 5562 5559 5555 5551 5548 5546
5610 5608 5606 5604 5603 5602 5601 5600 5599 5596 5594 5594 5594 5594 5594 5593 5592 5590 5589 5587 5585 5584 5585 5586 5585 5584 5582 5581 5579 5576 5574 5571 5568 5565 5562 5559 5555 5552 5549 5546 5542 5539 5537
5603 5601 5600 5599 5597 5596 5596 5595 5595 5594 5592 5591 5588 5586 5585 5584 5583 5582 5580 5578 5578 5577 5579 5579 5578 5576 5575 5572 5570 5568 5565 5562 5559 5556 5553 5550 5546 5543 5540 5537 5534 5531 5528
5596 5595 5594 5593 5592 5590 5589 5588 5588 5587 5586 5586 5584 5581 5578 5576 5574 5573 5571 5573 5575 5574 5573 5571 5570 5568 5566 5563 5561 5558 5555 5552 5549 5546 5543 5540 5536 5533 5531 5529 5525 5521 5518
5589 5587 5586 5586 5585 5584 5582 5582 5581 5580 5579 5579 5578 5576 5572 5570 5570 5568 5566 5567 5567 5567 5565 5563 5561 5559 5556 5554 5551 5548 5545 5542 5539 5536 5533 5530 5527 5525 5522 5519 5516 5513 5510
5582 5581 5578 5578 5578 5577 5576 5575 5574 5573 5572 5571 5570 5569 5565 5564 5564 5563 5562 5560 5560 5559 5557 5555 5553 5550 5547 5544 5541 5538 5535 5532 5529 5526 5524 5520 5518 5515 5513 5510 5507 5504 5501
5575 5574 5573 5572 5571 5570 5569 5568 5566 5565 5564 5564 5563 5561 5556 5556 5557 5556 5555 5554 5552 5550 5548 5546 5544 5541 5538 5535 5531 5528 5526 5523 5520 5517 5514 5512 5509 5506 5504 5501 5499 5496 5493
5566 5566 5566 5565 5564 5561 5560 5559 5558 5557 5556 5555 5554 5553 5551 5550 5549 5548 5547 5545 5542 5540 5538 5535 5533 5531 5528 5525 5522 5519 5516 5514 5511 5508 5505 5503 5500 5498 5496 5493 5490 5487 5484
5557 5557 5557 5556 5555 5554 5553 5551 5550 5549 5548 5546 5545 5544 5543 5542 5541 5539 5537 5535 5532 5530 5528 5525 5523 5521 5518 5515 5512 5509 5507 5504 5501 5499 5496 5494 5492 5490 5488 5485 5483 5479 5476
5548 5548 5548 5547 5546 5545 5544 5543 5542 5541 5539 5537 5536 5535 5534 5533 5531 5530 5527 5525 5522 5520 5518 5515 5514 5512 5509 5506 5503 5500 5497 5494 5492 5489 5486 5484 5483 5480 5478 5476 5473 5470 5467
5538 5538 5538 5537 5536 5535 5534 5534 5532 5531 5530 5528 5527 5526 5524 5523 5522 5520 5518 5515 5513 5510 5508 5506 5505 5503 5500 5498 5495 5491 5488 5485 5482 5479 5476 5475 5473 5471 5469 5466 5464 5460 5458